Time,TemperatureF,DewpointF,PressureIn,WindDirection,WindDirectionDegrees,WindSpeedMPH,WindSpeedGustMPH,Humidity,HourlyPrecipIn,Conditions,Clouds,dailyrainin,SoftwareType,DateUTC
2013-02-08 00:00:00,57.7,56.3,29.65,WSW,254,1.0,23.0,95,0.22,,,0.14,Wunderground v.1.15,2013-02-08 06:00:00,
2013-02-08 00:10:00,57.5,56.1,29.65,NNW,327,3.0,3.0,95,0.61,,,0.23,Wunderground v.1.15,2013-02-08 06:10:00,
2013-02-08 00:15:00,57.4,56.0,29.66,WNW,287,4.0,7.0,95,0.37,,,0.25,Wunderground v.1.15,2013-02-08 06:15:00,
2013-02-08 00:20:00,57.3,55.9,29.66,NW,306,4.0,23.0,95,0.20,,,0.27,Wunderground v.1.15,2013-02-08 06:20:00,
2013-02-08 00:25:00,57.2,55.8,29.66,WNW,301,4.0,23.0,95,0.10,,,0.28,Wunderground v.1.15,2013-02-08 06:25:00,
2013-02-08 00:30:00,57.1,55.7,29.65,WNW,296,5.0,5.0,95,0.43,,,0.31,Wunderground v.1.15,2013-02-08 06:30:00,
2013-02-08 00:35:00,57.0,55.6,29.65,WNW,296,2.0,23.0,95,0.09,,,0.31,Wunderground v.1.15,2013-02-08 06:35:00,
2013-02-08 00:40:00,56.9,55.5,29.65,WNW,298,2.0,23.0,95,0.05,,,0.31,Wunderground v.1.15,2013-02-08 06:40:00,
2013-02-08 00:45:00,56.9,55.8,29.65,NW,304,3.0,23.0,96,0.04,,,0.31,Wunderground v.1.15,2013-02-08 06:45:00,
2013-02-08 00:50:00,56.9,55.8,29.65,NW,305,4.0,23.0,96,0.00,,,0.31,Wunderground v.1.15,2013-02-08 06:50:00,
2013-02-08 01:00:00,56.9,55.8,29.64,NW,323,3.0,23.0,96,0.00,,,0.31,Wunderground v.1.15,2013-02-08 07:00:00,
2013-02-08 01:05:00,56.8,55.7,29.64,NW,304,4.0,23.0,96,0.00,,,0.32,Wunderground v.1.15,2013-02-08 07:05:00,
2013-02-08 01:10:00,56.8,55.7,29.64,NW,317,5.0,5.0,96,0.00,,,0.32,Wunderground v.1.15,2013-02-08 07:10:00,
2013-02-08 01:15:00,56.8,55.7,29.65,NNW,344,5.0,6.0,96,0.12,,,0.33,Wunderground v.1.15,2013-02-08 07:15:00,
2013-02-08 01:20:00,56.6,55.5,29.65,NNW,345,6.0,23.0,96,0.06,,,0.33,Wunderground v.1.15,2013-02-08 07:20:00,
2013-02-08 01:25:00,56.3,55.2,29.65,NW,318,7.0,23.0,96,0.04,,,0.33,Wunderground v.1.15,2013-02-08 07:25:00,
2013-02-08 01:30:00,56.2,55.1,29.66,NNE,17,9.0,9.0,96,0.00,,,0.33,Wunderground v.1.15,2013-02-08 07:30:00,
2013-02-08 01:35:00,56.2,55.1,29.66,NW,323,7.0,23.0,96,0.00,,,0.34,Wunderground v.1.15,2013-02-08 07:35:00,
2013-02-08 01:40:00,56.0,54.9,29.66,North,360,6.0,6.0,96,0.00,,,0.34,Wunderground v.1.15,2013-02-08 07:40:00,
2013-02-08 01:50:00,55.6,54.2,29.66,NNW,342,7.0,7.0,95,0.00,,,0.34,Wunderground v.1.15,2013-02-08 07:50:00,
2013-02-08 01:55:00,55.5,54.1,29.66,NNE,16,7.0,23.0,95,0.00,,,0.34,Wunderground v.1.15,2013-02-08 07:55:00,
2013-02-08 02:00:00,55.4,53.7,29.67,North,5,6.0,23.0,94,0.00,,,0.34,Wunderground v.1.15,2013-02-08 08:00:00,
2013-02-08 02:05:00,55.2,53.5,29.67,NNW,334,7.0,23.0,94,0.00,,,0.34,Wunderground v.1.15,2013-02-08 08:05:00,
2013-02-08 02:10:00,55.1,53.1,29.67,NNW,345,9.0,23.0,93,0.00,,,0.34,Wunderground v.1.15,2013-02-08 08:10:00,
2013-02-08 02:15:00,55.1,53.1,29.68,NNE,24,9.0,23.0,93,0.00,,,0.00,Wunderground v.1.15,2013-02-08 08:15:00,
2013-02-08 02:20:00,55.0,53.0,29.68,North,355,8.0,23.0,93,0.00,,,0.00,Wunderground v.1.15,2013-02-08 08:20:00,
2013-02-08 02:25:00,54.9,52.6,29.68,NNW,340,7.0,23.0,92,0.00,,,0.00,Wunderground v.1.15,2013-02-08 08:25:00,
2013-02-08 02:30:00,54.8,52.5,29.68,North,355,6.0,23.0,92,0.00,,,0.00,Wunderground v.1.15,2013-02-08 08:30:00,
2013-02-08 02:35:00,54.7,52.4,29.68,NE,38,6.0,23.0,92,0.00,,,0.00,Wunderground v.1.15,2013-02-08 08:35:00,
2013-02-08 02:45:00,53.7,51.4,29.69,NNW,344,12.0,24.0,92,0.00,,,0.00,Wunderground v.1.15,2013-02-08 08:45:00,
2013-02-08 02:50:00,53.1,50.8,29.69,North,360,13.0,13.0,92,0.00,,,0.00,Wunderground v.1.15,2013-02-08 08:50:00,
2013-02-08 02:55:00,52.8,50.5,29.69,NE,55,11.0,23.0,92,0.00,,,0.00,Wunderground v.1.15,2013-02-08 08:55:00,
2013-02-08 03:00:00,52.4,50.1,29.70,NE,34,9.0,9.0,92,0.00,,,0.00,Wunderground v.1.15,2013-02-08 09:00:00,
2013-02-08 03:05:00,52.1,49.8,29.70,NE,34,9.0,23.0,92,0.00,,,0.00,Wunderground v.1.15,2013-02-08 09:05:00,
2013-02-08 03:10:00,51.8,49.8,29.70,NNE,28,9.0,23.0,93,0.00,,,0.00,Wunderground v.1.15,2013-02-08 09:10:00,
2013-02-08 03:15:00,51.5,49.3,29.70,NNW,348,11.0,23.0,92,0.00,,,0.00,Wunderground v.1.15,2013-02-08 09:15:00,
2013-02-08 03:20:00,51.4,49.2,29.70,NE,42,10.0,10.0,92,0.00,,,0.00,Wunderground v.1.15,2013-02-08 09:20:00,
2013-02-08 03:30:00,50.8,48.6,29.72,NNW,338,8.0,8.0,92,0.00,,,0.00,Wunderground v.1.15,2013-02-08 09:30:00,
2013-02-08 03:35:00,50.7,48.5,29.72,NW,326,9.0,9.0,92,0.00,,,0.00,Wunderground v.1.15,2013-02-08 09:35:00,
2013-02-08 03:45:00,50.4,48.2,29.73,NNW,348,7.0,11.0,92,0.00,,,0.00,Wunderground v.1.15,2013-02-08 09:45:00,
2013-02-08 03:50:00,50.2,48.0,29.73,NE,42,7.0,23.0,92,0.00,,,0.01,Wunderground v.1.15,2013-02-08 09:50:00,
2013-02-08 03:55:00,49.9,47.7,29.73,NE,44,8.0,23.0,92,0.00,,,0.01,Wunderground v.1.15,2013-02-08 09:55:00,
2013-02-08 04:00:00,49.7,47.5,29.74,NNE,30,9.0,23.0,92,0.05,,,0.02,Wunderground v.1.15,2013-02-08 10:00:00,
2013-02-08 04:05:00,49.3,46.8,29.74,NNE,19,10.0,23.0,91,0.05,,,0.02,Wunderground v.1.15,2013-02-08 10:05:00,
2013-02-08 04:10:00,49.1,46.6,29.74,NE,56,9.0,9.0,91,0.05,,,0.02,Wunderground v.1.15,2013-02-08 10:10:00,
2013-02-08 04:15:00,49.0,46.8,29.75,NNE,26,8.0,12.0,92,0.06,,,0.03,Wunderground v.1.15,2013-02-08 10:15:00,
2013-02-08 04:20:00,48.8,46.6,29.75,NE,40,8.0,23.0,92,0.10,,,0.04,Wunderground v.1.15,2013-02-08 10:20:00,
2013-02-08 04:25:00,48.8,46.6,29.75,NNE,19,7.0,23.0,92,0.07,,,0.04,Wunderground v.1.15,2013-02-08 10:25:00,
2013-02-08 04:35:00,48.7,46.5,29.75,NE,36,7.0,23.0,92,0.05,,,0.05,Wunderground v.1.15,2013-02-08 10:35:00,
2013-02-08 04:40:00,48.6,46.4,29.75,NNE,14,7.0,7.0,92,0.05,,,0.05,Wunderground v.1.15,2013-02-08 10:40:00,
2013-02-08 04:45:00,48.5,46.3,29.76,NNW,337,8.0,8.0,92,0.00,,,0.05,Wunderground v.1.15,2013-02-08 10:45:00,
2013-02-08 04:50:00,48.3,45.8,29.76,North,355,8.0,23.0,91,0.00,,,0.05,Wunderground v.1.15,2013-02-08 10:50:00,
2013-02-08 04:55:00,48.2,45.7,29.76,NNW,333,9.0,23.0,91,0.00,,,0.05,Wunderground v.1.15,2013-02-08 10:55:00,
2013-02-08 05:00:00,48.1,45.6,29.78,North,360,9.0,23.0,91,0.00,,,0.05,Wunderground v.1.15,2013-02-08 11:00:00,
2013-02-08 05:10:00,47.9,45.1,29.78,NNW,345,9.0,9.0,90,0.00,,,0.05,Wunderground v.1.15,2013-02-08 11:10:00,
2013-02-08 05:15:00,47.8,45.0,29.78,NE,48,9.0,10.0,90,0.00,,,0.05,Wunderground v.1.15,2013-02-08 11:15:00,
2013-02-08 05:20:00,47.7,44.9,29.78,NNW,330,8.0,23.0,90,0.00,,,0.05,Wunderground v.1.15,2013-02-08 11:20:00,
2013-02-08 05:25:00,47.5,44.7,29.78,North,349,9.0,23.0,90,0.00,,,0.05,Wunderground v.1.15,2013-02-08 11:25:00,
2013-02-08 05:35:00,47.1,44.0,29.79,NNW,340,9.0,23.0,89,0.00,,,0.05,Wunderground v.1.15,2013-02-08 11:35:00,
2013-02-08 05:40:00,46.9,43.8,29.79,NNE,23,10.0,10.0,89,0.00,,,0.05,Wunderground v.1.15,2013-02-08 11:40:00,
2013-02-08 05:45:00,46.8,43.7,29.80,NNE,18,9.0,23.0,89,0.00,,,0.05,Wunderground v.1.15,2013-02-08 11:45:00,
2013-02-08 05:50:00,46.6,43.5,29.80,North,5,9.0,23.0,89,0.00,,,0.05,Wunderground v.1.15,2013-02-08 11:50:00,
2013-02-08 05:55:00,46.5,43.1,29.80,North,360,10.0,23.0,88,0.00,,,0.05,Wunderground v.1.15,2013-02-08 11:55:00,
2013-02-08 06:00:00,46.5,43.1,29.82,NE,41,9.0,23.0,88,0.00,,,0.05,Wunderground v.1.15,2013-02-08 12:00:00,
2013-02-08 06:05:00,46.4,42.7,29.82,NNE,13,8.0,23.0,87,0.00,,,0.05,Wunderground v.1.15,2013-02-08 12:05:00,
2013-02-08 06:10:00,46.3,42.6,29.82,North,350,8.0,23.0,87,0.00,,,0.05,Wunderground v.1.15,2013-02-08 12:10:00,
2013-02-08 06:20:00,46.2,42.8,29.83,NE,53,7.0,23.0,88,0.00,,,0.05,Wunderground v.1.15,2013-02-08 12:20:00,
2013-02-08 06:25:00,46.2,42.8,29.83,NE,34,6.0,23.0,88,0.00,,,0.05,Wunderground v.1.15,2013-02-08 12:25:00,
2013-02-08 06:35:00,46.1,42.7,29.84,NNE,28,7.0,23.0,88,0.00,,,0.05,Wunderground v.1.15,2013-02-08 12:35:00,
2013-02-08 06:40:00,46.1,42.7,29.84,North,5,6.0,6.0,88,0.00,,,0.05,Wunderground v.1.15,2013-02-08 12:40:00,
2013-02-08 06:45:00,46.1,42.7,29.85,NNE,24,6.0,23.0,88,0.00,,,0.05,Wunderground v.1.15,2013-02-08 12:45:00,
2013-02-08 06:55:00,46.0,42.6,29.85,NNW,333,6.0,11.0,88,0.00,,,0.05,Wunderground v.1.15,2013-02-08 12:55:00,
2013-02-08 07:00:00,46.0,42.6,29.86,NNE,27,8.0,8.0,88,0.00,,,0.05,Wunderground v.1.15,2013-02-08 13:00:00,
2013-02-08 07:05:00,45.8,42.4,29.86,NNW,327,8.0,14.0,88,0.00,,,0.05,Wunderground v.1.15,2013-02-08 13:05:00,
2013-02-08 07:10:00,45.6,42.0,29.86,NE,36,10.0,23.0,87,0.00,,,0.05,Wunderground v.1.15,2013-02-08 13:10:00,
2013-02-08 07:15:00,45.4,41.8,29.87,NNE,29,11.0,23.0,87,0.00,,,0.05,Wunderground v.1.15,2013-02-08 13:15:00,
2013-02-08 07:25:00,45.2,41.3,29.87,NW,322,9.0,23.0,86,0.00,,,0.05,Wunderground v.1.15,2013-02-08 13:25:00,
2013-02-08 07:30:00,45.2,41.0,29.88,WNW,301,8.0,23.0,85,0.00,,,0.05,Wunderground v.1.15,2013-02-08 13:30:00,
2013-02-08 07:40:00,45.0,40.5,29.88,NNE,22,10.0,23.0,84,0.00,,,0.05,Wunderground v.1.15,2013-02-08 13:40:00,
2013-02-08 07:45:00,44.9,40.0,29.89,NNW,340,11.0,23.0,83,0.00,,,0.05,Wunderground v.1.15,2013-02-08 13:45:00,
2013-02-08 07:50:00,44.8,40.0,29.89,NE,46,11.0,23.0,83,0.00,,,0.05,Wunderground v.1.15,2013-02-08 13:50:00,
2013-02-08 08:00:00,44.7,39.5,29.90,NE,37,10.0,10.0,82,0.00,,,0.05,Wunderground v.1.15,2013-02-08 14:00:00,
2013-02-08 08:05:00,44.7,39.5,29.90,NE,49,10.0,11.0,82,0.00,,,0.05,Wunderground v.1.15,2013-02-08 14:05:00,
2013-02-08 08:10:00,44.6,39.1,29.90,NE,44,11.0,11.0,81,0.00,,,0.05,Wunderground v.1.15,2013-02-08 14:10:00,
2013-02-08 08:15:00,44.6,39.1,29.91,NE,37,14.0,21.0,81,0.00,,,0.05,Wunderground v.1.15,2013-02-08 14:15:00,
2013-02-08 08:20:00,44.6,38.8,29.91,NE,44,14.0,23.0,80,0.00,,,0.05,Wunderground v.1.15,2013-02-08 14:20:00,
2013-02-08 08:25:00,44.6,38.8,29.91,NNE,30,14.0,23.0,80,0.00,,,0.05,Wunderground v.1.15,2013-02-08 14:25:00,
2013-02-08 08:35:00,44.8,39.3,29.92,NE,34,7.0,23.0,81,0.00,,,0.05,Wunderground v.1.15,2013-02-08 14:35:00,
2013-02-08 08:45:00,44.7,38.9,29.93,NNE,30,10.0,23.0,80,0.00,,,0.05,Wunderground v.1.15,2013-02-08 14:45:00,
2013-02-08 08:50:00,44.7,38.9,29.93,NE,36,11.0,23.0,80,0.00,,,0.05,Wunderground v.1.15,2013-02-08 14:50:00,
2013-02-08 08:55:00,44.7,38.9,29.93,NE,55,10.0,23.0,80,0.00,,,0.05,Wunderground v.1.15,2013-02-08 14:55:00,
2013-02-08 09:00:00,44.8,39.0,29.94,NNE,30,8.0,23.0,80,0.00,,,0.05,Wunderground v.1.15,2013-02-08 15:00:00,
2013-02-08 09:10:00,44.9,39.1,29.94,NE,42,10.0,10.0,80,0.00,,,0.05,Wunderground v.1.15,2013-02-08 15:10:00,
2013-02-08 09:15:00,44.9,38.8,29.94,NNE,28,9.0,23.0,79,0.00,,,0.05,Wunderground v.1.15,2013-02-08 15:15:00,
2013-02-08 09:20:00,44.8,39.0,29.94,NNE,32,11.0,23.0,80,0.00,,,0.05,Wunderground v.1.15,2013-02-08 15:20:00,
2013-02-08 09:25:00,44.8,38.7,29.94,NNW,329,12.0,23.0,79,0.00,,,0.05,Wunderground v.1.15,2013-02-08 15:25:00,
2013-02-08 09:30:00,44.8,38.7,29.95,NE,56,12.0,23.0,79,0.00,,,0.05,Wunderground v.1.15,2013-02-08 15:30:00,
2013-02-08 09:40:00,44.9,38.8,29.95,NE,41,12.0,23.0,79,0.00,,,0.05,Wunderground v.1.15,2013-02-08 15:40:00,
2013-02-08 09:50:00,44.9,38.8,29.96,NE,36,12.0,12.0,79,0.00,,,0.05,Wunderground v.1.15,2013-02-08 15:50:00,
2013-02-08 09:55:00,44.8,38.4,29.96,NE,40,13.0,13.0,78,0.00,,,0.05,Wunderground v.1.15,2013-02-08 15:55:00,
2013-02-08 10:00:00,44.7,38.3,29.97,NW,314,12.0,23.0,78,0.00,,,0.05,Wunderground v.1.15,2013-02-08 16:00:00,
2013-02-08 10:05:00,44.8,38.4,29.97,NNW,329,11.0,23.0,78,0.00,,,0.05,Wunderground v.1.15,2013-02-08 16:05:00,
2013-02-08 10:10:00,44.9,38.8,29.97,NNE,15,9.0,23.0,79,0.00,,,0.05,Wunderground v.1.15,2013-02-08 16:10:00,
2013-02-08 10:15:00,44.9,38.5,29.97,NE,40,8.0,23.0,78,0.00,,,0.05,Wunderground v.1.15,2013-02-08 16:15:00,
2013-02-08 10:20:00,45.0,38.9,29.97,NNE,26,7.0,7.0,79,0.00,,,0.05,Wunderground v.1.15,2013-02-08 16:20:00,
2013-02-08 10:30:00,44.5,38.1,29.99,NNW,333,9.0,23.0,78,0.00,,,0.05,Wunderground v.1.15,2013-02-08 16:30:00,
2013-02-08 10:35:00,44.6,38.2,29.99,NW,321,10.0,23.0,78,0.00,,,0.05,Wunderground v.1.15,2013-02-08 16:35:00,
2013-02-08 10:40:00,44.5,38.1,29.99,North,355,9.0,23.0,78,0.00,,,0.05,Wunderground v.1.15,2013-02-08 16:40:00,
2013-02-08 10:50:00,44.0,37.3,30.00,NNE,15,11.0,23.0,77,0.00,,,0.05,Wunderground v.1.15,2013-02-08 16:50:00,
2013-02-08 10:55:00,43.8,37.4,30.00,NNW,343,11.0,23.0,78,0.00,,,0.05,Wunderground v.1.15,2013-02-08 16:55:00,
2013-02-08 11:00:00,44.0,37.6,30.00,NE,41,11.0,11.0,78,0.00,,,0.05,Wunderground v.1.15,2013-02-08 17:00:00,
2013-02-08 11:05:00,43.9,37.5,30.00,NE,50,10.0,21.0,78,0.00,,,0.05,Wunderground v.1.15,2013-02-08 17:05:00,
2013-02-08 11:10:00,43.9,37.5,30.00,NNW,329,10.0,23.0,78,0.00,,,0.05,Wunderground v.1.15,2013-02-08 17:10:00,
2013-02-08 11:15:00,44.0,37.3,30.00,NE,34,10.0,23.0,77,0.00,,,0.05,Wunderground v.1.15,2013-02-08 17:15:00,
2013-02-08 11:20:00,43.7,37.0,30.00,NE,56,11.0,11.0,77,0.00,,,0.05,Wunderground v.1.15,2013-02-08 17:20:00,
2013-02-08 11:30:00,43.7,37.0,30.00,NNE,26,11.0,23.0,77,0.00,,,0.05,Wunderground v.1.15,2013-02-08 17:30:00,
2013-02-08 11:35:00,43.6,36.9,30.00,ENE,59,12.0,23.0,77,0.00,,,0.05,Wunderground v.1.15,2013-02-08 17:35:00,
2013-02-08 11:40:00,43.8,36.7,30.00,NNE,15,12.0,23.0,76,0.00,,,0.05,Wunderground v.1.15,2013-02-08 17:40:00,
2013-02-08 11:45:00,43.7,36.3,30.00,North,350,12.0,23.0,75,0.00,,,0.05,Wunderground v.1.15,2013-02-08 17:45:00,
2013-02-08 11:50:00,43.7,36.3,30.00,North,360,11.0,23.0,75,0.00,,,0.05,Wunderground v.1.15,2013-02-08 17:50:00,
2013-02-08 12:00:00,43.8,36.4,30.00,NE,40,12.0,23.0,75,0.00,,,0.05,Wunderground v.1.15,2013-02-08 18:00:00,
2013-02-08 12:05:00,43.8,36.4,30.00,NE,48,14.0,23.0,75,0.00,,,0.05,Wunderground v.1.15,2013-02-08 18:05:00,
2013-02-08 12:10:00,44.0,36.6,30.00,NNE,24,12.0,23.0,75,0.00,,,0.05,Wunderground v.1.15,2013-02-08 18:10:00,
2013-02-08 12:20:00,44.1,36.7,30.00,NNE,17,10.0,10.0,75,0.00,,,0.05,Wunderground v.1.15,2013-02-08 18:20:00,
2013-02-08 12:25:00,43.8,36.0,30.00,NE,52,12.0,12.0,74,0.00,,,0.05,Wunderground v.1.15,2013-02-08 18:25:00,
2013-02-08 12:35:00,43.9,36.5,30.01,NNE,26,10.0,23.0,75,0.00,,,0.05,Wunderground v.1.15,2013-02-08 18:35:00,
2013-02-08 12:40:00,44.0,36.6,30.01,East,90,11.0,11.0,75,0.00,,,0.05,Wunderground v.1.15,2013-02-08 18:40:00,
2013-02-08 12:45:00,43.9,36.5,30.00,ENE,59,10.0,23.0,75,0.00,,,0.05,Wunderground v.1.15,2013-02-08 18:45:00,
2013-02-08 12:50:00,44.3,36.5,30.00,NE,46,9.0,9.0,74,0.00,,,0.05,Wunderground v.1.15,2013-02-08 18:50:00,
2013-02-08 12:55:00,44.6,36.8,30.00,NNE,30,8.0,23.0,74,0.00,,,0.05,Wunderground v.1.15,2013-02-08 18:55:00,
2013-02-08 13:00:00,44.7,36.6,30.00,ENE,74,8.0,23.0,73,0.00,,,0.05,Wunderground v.1.15,2013-02-08 19:00:00,
2013-02-08 13:05:00,44.3,36.5,30.00,ENE,74,10.0,23.0,74,0.00,,,0.05,Wunderground v.1.15,2013-02-08 19:05:00,
2013-02-08 13:15:00,44.3,36.5,30.00,North,11,8.0,23.0,74,0.00,,,0.05,Wunderground v.1.15,2013-02-08 19:15:00,
2013-02-08 13:20:00,44.7,36.9,30.00,NNW,338,7.0,23.0,74,0.00,,,0.05,Wunderground v.1.15,2013-02-08 19:20:00,
2013-02-08 13:30:00,44.4,36.3,30.00,North,360,9.0,23.0,73,0.00,,,0.05,Wunderground v.1.15,2013-02-08 19:30:00,
2013-02-08 13:35:00,44.3,36.2,30.00,NNE,29,9.0,23.0,73,0.00,,,0.05,Wunderground v.1.15,2013-02-08 19:35:00,
2013-02-08 13:40:00,44.3,36.2,30.00,North,350,7.0,23.0,73,0.00,,,0.05,Wunderground v.1.15,2013-02-08 19:40:00,
2013-02-08 13:50:00,44.2,36.4,30.00,NNE,21,8.0,23.0,74,0.00,,,0.05,Wunderground v.1.15,2013-02-08 19:50:00,
2013-02-08 13:55:00,44.1,36.3,30.00,NNE,22,7.0,23.0,74,0.00,,,0.05,Wunderground v.1.15,2013-02-08 19:55:00,
2013-02-08 14:00:00,44.2,36.4,30.00,NE,38,7.0,23.0,74,0.00,,,0.05,Wunderground v.1.15,2013-02-08 20:00:00,
2013-02-08 14:05:00,44.1,36.0,30.00,NNE,17,8.0,23.0,73,0.00,,,0.05,Wunderground v.1.15,2013-02-08 20:05:00,
2013-02-08 14:10:00,44.1,36.0,30.00,ENE,69,8.0,23.0,73,0.00,,,0.05,Wunderground v.1.15,2013-02-08 20:10:00,
2013-02-08 14:20:00,44.1,36.0,30.00,NE,56,9.0,9.0,73,0.00,,,0.05,Wunderground v.1.15,2013-02-08 20:20:00,
2013-02-08 14:30:00,44.0,36.2,29.99,ENE,74,8.0,23.0,74,0.00,,,0.05,Wunderground v.1.15,2013-02-08 20:30:00,
2013-02-08 14:35:00,44.2,36.4,29.99,NE,41,9.0,23.0,74,0.00,,,0.05,Wunderground v.1.15,2013-02-08 20:35:00,
2013-02-08 14:40:00,44.5,36.4,29.99,NNW,342,7.0,23.0,73,0.00,,,0.05,Wunderground v.1.15,2013-02-08 20:40:00,
2013-02-08 14:45:00,44.5,36.7,29.99,ENE,59,6.0,23.0,74,0.00,,,0.05,Wunderground v.1.15,2013-02-08 20:45:00,
2013-02-08 14:50:00,44.1,36.0,29.99,NE,36,8.0,8.0,73,0.00,,,0.05,Wunderground v.1.15,2013-02-08 20:50:00,
2013-02-08 14:55:00,44.5,36.7,29.99,NNW,340,7.0,23.0,74,0.00,,,0.05,Wunderground v.1.15,2013-02-08 20:55:00,
2013-02-08 15:00:00,44.6,36.1,29.99,NE,44,7.0,23.0,72,0.00,,,0.05,Wunderground v.1.15,2013-02-08 21:00:00,
2013-02-08 15:10:00,44.5,36.4,29.99,ENE,70,7.0,23.0,73,0.00,,,0.05,Wunderground v.1.15,2013-02-08 21:10:00,
2013-02-08 15:15:00,44.3,36.2,29.99,NE,41,6.0,23.0,73,0.00,,,0.05,Wunderground v.1.15,2013-02-08 21:15:00,
2013-02-08 15:20:00,44.3,36.5,29.99,NE,37,6.0,23.0,74,0.00,,,0.05,Wunderground v.1.15,2013-02-08 21:20:00,
2013-02-08 15:30:00,44.0,36.2,29.99,NE,46,7.0,23.0,74,0.00,,,0.05,Wunderground v.1.15,2013-02-08 21:30:00,
2013-02-08 15:35:00,44.0,36.2,29.99,NNE,26,8.0,23.0,74,0.00,,,0.05,Wunderground v.1.15,2013-02-08 21:35:00,
2013-02-08 15:40:00,44.1,36.3,29.99,NNW,342,7.0,7.0,74,0.00,,,0.05,Wunderground v.1.15,2013-02-08 21:40:00,
2013-02-08 15:45:00,44.1,36.3,30.01,NNW,344,6.0,23.0,74,0.00,,,0.05,Wunderground v.1.15,2013-02-08 21:45:00,
2013-02-08 15:50:00,43.9,36.1,30.01,NNE,30,6.0,6.0,74,0.00,,,0.05,Wunderground v.1.15,2013-02-08 21:50:00,
2013-02-08 16:00:00,43.8,36.0,30.02,NE,34,5.0,23.0,74,0.00,,,0.05,Wunderground v.1.15,2013-02-08 22:00:00,
2013-02-08 16:10:00,43.6,35.9,30.02,NE,41,6.0,23.0,74,0.00,,,0.05,Wunderground v.1.15,2013-02-08 22:10:00,
2013-02-08 16:15:00,43.6,35.9,30.01,NNE,28,7.0,23.0,74,0.00,,,0.05,Wunderground v.1.15,2013-02-08 22:15:00,
2013-02-08 16:20:00,43.5,35.8,30.01,NNE,22,6.0,6.0,74,0.00,,,0.05,Wunderground v.1.15,2013-02-08 22:20:00,
2013-02-08 16:25:00,43.4,35.7,30.01,NNW,334,6.0,23.0,74,0.00,,,0.05,Wunderground v.1.15,2013-02-08 22:25:00,
2013-02-08 16:30:00,43.4,35.7,30.03,NNE,24,4.0,23.0,74,0.00,,,0.05,Wunderground v.1.15,2013-02-08 22:30:00,
2013-02-08 16:40:00,43.3,35.2,30.03,NNW,336,6.0,23.0,73,0.00,,,0.05,Wunderground v.1.15,2013-02-08 22:40:00,
2013-02-08 16:45:00,43.1,35.0,30.03,NE,42,7.0,23.0,73,0.00,,,0.05,Wunderground v.1.15,2013-02-08 22:45:00,
2013-02-08 16:50:00,42.9,35.2,30.03,NNE,25,6.0,23.0,74,0.00,,,0.05,Wunderground v.1.15,2013-02-08 22:50:00,
2013-02-08 16:55:00,42.8,35.1,30.03,NE,56,6.0,23.0,74,0.00,,,0.05,Wunderground v.1.15,2013-02-08 22:55:00,
2013-02-08 17:05:00,42.7,35.3,30.03,North,355,6.0,7.0,75,0.00,,,0.05,Wunderground v.1.15,2013-02-08 23:05:00,
2013-02-08 17:15:00,42.5,34.5,30.04,NNE,30,6.0,23.0,73,0.00,,,0.05,Wunderground v.1.15,2013-02-08 23:15:00,
2013-02-08 17:20:00,42.4,34.7,30.04,NE,51,6.0,23.0,74,0.00,,,0.05,Wunderground v.1.15,2013-02-08 23:20:00,
2013-02-08 17:25:00,42.1,34.1,30.04,NE,42,8.0,23.0,73,0.00,,,0.05,Wunderground v.1.15,2013-02-08 23:25:00,
2013-02-08 17:30:00,42.0,34.3,30.05,NE,40,10.0,10.0,74,0.00,,,0.05,Wunderground v.1.15,2013-02-08 23:30:00,
2013-02-08 17:35:00,41.8,33.8,30.05,NNE,13,8.0,23.0,73,0.00,,,0.05,Wunderground v.1.15,2013-02-08 23:35:00,
2013-02-08 17:45:00,41.4,34.1,30.04,NE,44,7.0,10.0,75,0.00,,,0.05,Wunderground v.1.15,2013-02-08 23:45:00,
2013-02-08 17:55:00,41.1,33.8,30.04,NNE,24,10.0,23.0,75,0.00,,,0.05,Wunderground v.1.15,2013-02-08 23:55:00,
2013-02-08 18:00:00,41.1,34.1,30.02,NE,48,10.0,10.0,76,0.00,,,0.05,Wunderground v.1.15,2013-02-09 00:00:00,
2013-02-08 18:05:00,40.8,33.5,30.02,NNE,30,11.0,11.0,75,0.00,,,0.05,Wunderground v.1.15,2013-02-09 00:05:00,
2013-02-08 18:10:00,40.7,33.7,30.02,East,84,11.0,11.0,76,0.00,,,0.05,Wunderground v.1.15,2013-02-09 00:10:00,
2013-02-08 18:15:00,40.7,33.7,30.02,East,86,9.0,13.0,76,0.00,,,0.05,Wunderground v.1.15,2013-02-09 00:15:00,
2013-02-08 18:20:00,40.6,33.6,30.02,East,81,9.0,23.0,76,0.00,,,0.05,Wunderground v.1.15,2013-02-09 00:20:00,
2013-02-08 18:25:00,40.5,33.5,30.02,ENE,57,10.0,23.0,76,0.00,,,0.05,Wunderground v.1.15,2013-02-09 00:25:00,
2013-02-08 18:30:00,40.5,33.5,30.01,NE,42,10.0,23.0,76,0.00,,,0.05,Wunderground v.1.15,2013-02-09 00:30:00,
2013-02-08 18:35:00,40.7,33.7,30.01,NE,52,11.0,23.0,76,0.00,,,0.05,Wunderground v.1.15,2013-02-09 00:35:00,
2013-02-08 18:45:00,40.6,34.0,30.02,ENE,64,8.0,23.0,77,0.00,,,0.05,Wunderground v.1.15,2013-02-09 00:45:00,
2013-02-08 18:55:00,40.6,34.0,30.02,NE,36,6.0,23.0,77,0.00,,,0.05,Wunderground v.1.15,2013-02-09 00:55:00,
2013-02-08 19:00:00,40.6,33.6,30.03,East,83,5.0,5.0,76,0.00,,,0.05,Wunderground v.1.15,2013-02-09 01:00:00,
2013-02-08 19:05:00,40.5,33.5,30.03,NE,49,6.0,6.0,76,0.00,,,0.05,Wunderground v.1.15,2013-02-09 01:05:00,
2013-02-08 19:10:00,40.6,33.6,30.03,NE,43,6.0,23.0,76,0.00,,,0.05,Wunderground v.1.15,2013-02-09 01:10:00,
2013-02-08 19:15:00,40.6,33.6,30.03,ENE,68,6.0,23.0,76,0.00,,,0.05,Wunderground v.1.15,2013-02-09 01:15:00,
2013-02-08 19:20:00,40.6,33.6,30.03,ENE,61,7.0,7.0,76,0.00,,,0.05,Wunderground v.1.15,2013-02-09 01:20:00,
2013-02-08 19:25:00,40.7,33.7,30.03,ESE,105,6.0,23.0,76,0.00,,,0.05,Wunderground v.1.15,2013-02-09 01:25:00,
2013-02-08 19:30:00,40.9,33.6,30.04,NE,45,6.0,23.0,75,0.00,,,0.05,Wunderground v.1.15,2013-02-09 01:30:00,
2013-02-08 19:40:00,40.5,33.5,30.04,ENE,63,10.0,10.0,76,0.00,,,0.05,Wunderground v.1.15,2013-02-09 01:40:00,
2013-02-08 19:45:00,40.5,33.2,30.06,NE,34,8.0,13.0,75,0.00,,,0.05,Wunderground v.1.15,2013-02-09 01:45:00,
2013-02-08 19:50:00,40.4,33.1,30.06,ENE,75,8.0,8.0,75,0.00,,,0.05,Wunderground v.1.15,2013-02-09 01:50:00,
2013-02-08 19:55:00,40.5,33.2,30.06,ENE,76,8.0,23.0,75,0.00,,,0.05,Wunderground v.1.15,2013-02-09 01:55:00,
2013-02-08 20:05:00,40.5,33.2,30.06,NE,49,6.0,23.0,75,0.00,,,0.05,Wunderground v.1.15,2013-02-09 02:05:00,
2013-02-08 20:10:00,40.4,33.1,30.06,East,90,4.0,4.0,75,0.00,,,0.05,Wunderground v.1.15,2013-02-09 02:10:00,
2013-02-08 20:15:00,40.4,33.1,30.07,ENE,68,4.0,7.0,75,0.00,,,0.05,Wunderground v.1.15,2013-02-09 02:15:00,
2013-02-08 20:20:00,40.4,33.1,30.07,ENE,74,5.0,5.0,75,0.00,,,0.05,Wunderground v.1.15,2013-02-09 02:20:00,
2013-02-08 20:30:00,40.4,33.4,30.06,ENE,76,5.0,5.0,76,0.00,,,0.05,Wunderground v.1.15,2013-02-09 02:30:00,
2013-02-08 20:35:00,40.2,33.2,30.06,ENE,59,5.0,6.0,76,0.00,,,0.05,Wunderground v.1.15,2013-02-09 02:35:00,
2013-02-08 20:40:00,40.1,33.1,30.06,ENE,61,5.0,5.0,76,0.00,,,0.05,Wunderground v.1.15,2013-02-09 02:40:00,
2013-02-08 20:45:00,40.0,33.0,30.06,NE,40,4.0,23.0,76,0.00,,,0.05,Wunderground v.1.15,2013-02-09 02:45:00,
2013-02-08 20:50:00,39.8,33.2,30.06,NE,41,4.0,23.0,77,0.00,,,0.05,Wunderground v.1.15,2013-02-09 02:50:00,
2013-02-08 20:55:00,39.7,33.1,30.06,NE,48,4.0,23.0,77,0.00,,,0.05,Wunderground v.1.15,2013-02-09 02:55:00,
2013-02-08 21:00:00,39.6,33.0,30.06,NE,48,4.0,4.0,77,0.00,,,0.05,Wunderground v.1.15,2013-02-09 03:00:00,
2013-02-08 21:10:00,39.5,33.2,30.06,NE,48,2.0,23.0,78,0.00,,,0.05,Wunderground v.1.15,2013-02-09 03:10:00,
2013-02-08 21:20:00,39.3,33.0,30.06,NE,48,3.0,3.0,78,0.00,,,0.05,Wunderground v.1.15,2013-02-09 03:20:00,
2013-02-08 21:25:00,39.2,32.9,30.06,NE,48,2.0,23.0,78,0.00,,,0.05,Wunderground v.1.15,2013-02-09 03:25:00,
2013-02-08 21:30:00,39.1,32.8,30.06,NE,48,2.0,2.0,78,0.00,,,0.05,Wunderground v.1.15,2013-02-09 03:30:00,
2013-02-08 21:35:00,39.1,33.1,30.06,NE,48,2.0,4.0,79,0.00,,,0.05,Wunderground v.1.15,2013-02-09 03:35:00,
2013-02-08 21:45:00,39.0,33.0,30.06,NE,48,1.0,23.0,79,0.00,,,0.05,Wunderground v.1.15,2013-02-09 03:45:00,
2013-02-08 21:50:00,38.9,32.9,30.06,NE,48,0.0,23.0,79,0.00,,,0.05,Wunderground v.1.15,2013-02-09 03:50:00,
2013-02-08 21:55:00,38.7,32.7,30.06,NE,48,0.0,23.0,79,0.00,,,0.05,Wunderground v.1.15,2013-02-09 03:55:00,
2013-02-08 22:00:00,38.4,32.5,30.06,NE,48,0.0,23.0,79,0.00,,,0.05,Wunderground v.1.15,2013-02-09 04:00:00,
2013-02-08 22:05:00,38.3,32.7,30.06,NE,48,0.0,23.0,80,0.00,,,0.05,Wunderground v.1.15,2013-02-09 04:05:00,
2013-02-08 22:15:00,38.3,33.0,30.06,NE,48,1.0,23.0,81,0.00,,,0.05,Wunderground v.1.15,2013-02-09 04:15:00,
2013-02-08 22:25:00,38.2,32.9,30.06,NE,48,1.0,23.0,81,0.00,,,0.05,Wunderground v.1.15,2013-02-09 04:25:00,
2013-02-08 22:30:00,38.2,32.9,30.05,NE,48,2.0,2.0,81,0.00,,,0.05,Wunderground v.1.15,2013-02-09 04:30:00,
2013-02-08 22:35:00,38.2,32.9,30.05,NE,48,2.0,4.0,81,0.00,,,0.05,Wunderground v.1.15,2013-02-09 04:35:00,
2013-02-08 22:40:00,38.1,32.8,30.05,NE,44,3.0,23.0,81,0.00,,,0.05,Wunderground v.1.15,2013-02-09 04:40:00,
2013-02-08 22:45:00,38.0,32.7,30.04,NE,44,5.0,23.0,81,0.00,,,0.05,Wunderground v.1.15,2013-02-09 04:45:00,
2013-02-08 22:50:00,37.9,32.6,30.04,NE,44,4.0,23.0,81,0.00,,,0.05,Wunderground v.1.15,2013-02-09 04:50:00,
2013-02-08 22:55:00,37.8,32.5,30.04,NE,44,3.0,23.0,81,0.00,,,0.05,Wunderground v.1.15,2013-02-09 04:55:00,
2013-02-08 23:05:00,37.5,32.5,30.04,NE,44,2.0,23.0,82,0.00,,,0.05,Wunderground v.1.15,2013-02-09 05:05:00,
2013-02-08 23:10:00,37.4,32.4,30.04,NE,44,1.0,23.0,82,0.00,,,0.05,Wunderground v.1.15,2013-02-09 05:10:00,
2013-02-08 23:15:00,37.4,32.4,30.04,NE,44,1.0,23.0,82,0.00,,,0.05,Wunderground v.1.15,2013-02-09 05:15:00,
2013-02-08 23:20:00,37.4,32.4,30.04,NE,44,2.0,23.0,82,0.00,,,0.05,Wunderground v.1.15,2013-02-09 05:20:00,
2013-02-08 23:25:00,37.4,32.4,30.04,NE,44,2.0,23.0,82,0.00,,,0.05,Wunderground v.1.15,2013-02-09 05:25:00,
2013-02-08 23:30:00,37.3,32.3,30.04,NE,44,1.0,1.0,82,0.00,,,0.05,Wunderground v.1.15,2013-02-09 05:30:00,
2013-02-08 23:35:00,37.3,32.3,30.04,NE,44,1.0,23.0,82,0.00,,,0.05,Wunderground v.1.15,2013-02-09 05:35:00,
2013-02-08 23:40:00,37.3,32.3,30.04,NE,44,1.0,23.0,82,0.00,,,0.05,Wunderground v.1.15,2013-02-09 05:40:00,
2013-02-08 23:45:00,37.2,32.2,30.04,NE,44,1.0,23.0,82,0.00,,,0.05,Wunderground v.1.15,2013-02-09 05:45:00,
2013-02-08 23:50:00,37.1,32.1,30.04,NE,44,2.0,2.0,82,0.00,,,0.05,Wunderground v.1.15,2013-02-09 05:50:00,